Temp
-10 -10 -10 -10 -10 -10 -10 -10 -10 -10 -10 -10 -10 -10 -10 -10 -10 -10 -10 -11 -10 -10 -10 -10 -10 -10 -10 -10 -10 -10 -9 -9 -9 -9 -9 -9 -10 -10 -10 -10 -10 -10 -10 -10 -10
-10 -10 -10 -10 -10 -10 -10 -10 -9 -9 -10 -10 -10 -10 -10 -10 -10 -10 -10 -11 -11 -11 -11 -11 -11 -11 -11 -11 -11 -11 -10 -9 -9 -10 -10 -10 -10 -10 -10 -10 -10 -10 -10 -11 -11
-10 -10 -10 -10 -10 -10 -10 -10 -10 -10 -10 -10 -10 -10 -10 -10 -10 -10 -10 -10 -11 -11 -12 -12 -11 -12 -11 -11 -11 -11 -9 -9 -9 -10 -10 -10 -10 -10 -10 -10 -10 -10 -10 -9 -10
-11 -11 -11 -10 -10 -10 -10 -10 -10 -10 -11 -10 -10 -10 -10 -10 -10 -9 -9 -10 -10 -11 -11 -11 -12 -12 -11 -11 -12 -11 -10 -10 -10 -10 -11 -10 -10 -10 -10 -10 -10 -10 -10 -10 -10
-11 -11 -11 -11 -11 -11 -11 -11 -10 -11 -11 -11 -11 -11 -11 -10 -10 -10 -10 -10 -10 -10 -11 -11 -11 -12 -11 -12 -12 -11 -10 -11 -10 -11 -11 -11 -10 -10 -10 -10 -11 -10 -11 -10 -10
-11 -11 -11 -11 -11 -11 -11 -11 -11 -11 -10 -10 -10 -11 -11 -10 -11 -11 -10 -10 -10 -11 -11 -11 -11 -12 -12 -12 -13 -11 -11 -11 -11 -11 -11 -12 -11 -10 -9 -10 -10 -10 -10 -10 -10
-11 -11 -11 -11 -11 -11 -11 -11 -11 -11 -10 -10 -10 -10 -10 -10 -11 -11 -11 -11 -11 -11 -11 -11 -11 -12 -11 -12 -11 -12 -12 -11 -11 -11 -10 -12 -10 -10 -9 -9 -10 -10 -10 -10 -10
-12 -12 -12 -12 -12 -11 -11 -11 -11 -11 -11 -11 -10 -10 -10 -10 -10 -10 -10 -10 -11 -11 -11 -11 -12 -12 -11 -11 -12 -12 -13 -11 -8 -10 -8 -12 -12 -9 -10 -11 -11 -11 -11 -11 -10
-12 -12 -12 -12 -12 -12 -11 -11 -11 -11 -11 -11 -11 -10 -10 -10 -10 -10 -10 -10 -11 -11 -11 -11 -12 -12 -12 -12 -12 -12 -11 -10 -7 -9 -11 -12 -12 -8 -11 -12 -11 -12 -11 -10 -10
-12 -12 -11 -11 -11 -11 -11 -11 -11 -11 -11 -11 -11 -11 -11 -10 -10 -10 -10 -10 -10 -10 -11 -11 -11 -12 -11 -11 -9 -9 -10 -8 -9 -10 -11 -12 -12 -10 -11 -12 -12 -12 -11 -9 -10
-12 -12 -11 -11 -11 -11 -11 -11 -11 -11 -11 -11 -11 -11 -11 -10 -10 -10 -10 -10 -10 -10 -10 -11 -12 -10 -9 -11 -11 -11 -11 -10 -10 -11 -11 -12 -13 -11 -10 -11 -11 -11 -10 -10 -10
-11 -11 -11 -10 -10 -11 -10 -11 -12 -12 -11 -11 -11 -12 -11 -12 -11 -10 -10 -10 -10 -10 -10 -12 -10 -9 -11 -11 -11 -11 -11 -11 -10 -11 -12 -13 -13 -11 -10 -9 -10 -10 -11 -10 -10
-11 -11 -11 -12 -14 -16 -17 -18 -18 -18 -13 -13 -15 -13 -14 -14 -12 -11 -12 -11 -11 -11 -11 -11 -9 -11 -11 -11 -11 -10 -10 -10 -10 -11 -11 -14 -12 -10 -9 -10 -9 -10 -10 -10 -10
-12 -13 -15 -20 -22 -23 -23 -23 -23 -22 -19 -19 -19 -18 -17 -17 -15 -15 -14 -13 -12 -12 -13 -11 -10 -11 -11 -10 -11 -10 -10 -11 -11 -11 -11 -13 -11 -8 -9 -9 -10 -10 -11 -10 -9
-16 -18 -21 -23 -24 -25 -25 -24 -24 -23 -22 -23 -23 -23 -22 -20 -20 -19 -17 -16 -14 -14 -15 -10 -10 -11 -10 -9 -12 -9 -12 -12 -12 -12 -11 -11 -11 -8 -10 -10 -10 -10 -10 -10 -10
-19 -21 -23 -23 -24 -24 -25 -25 -24 -24 -23 -23 -23 -23 -22 -23 -22 -23 -21 -20 -18 -17 -15 -11 -12 -11 -10 -10 -12 -11 -13 -12 -12 -12 -13 -9 -10 -8 -9 -11 -10 -10 -11 -11 -11
-20 -22 -23 -24 -24 -25 -25 -25 -24 -23 -23 -23 -23 -23 -24 -23 -23 -23 -23 -23 -22 -22 -17 -13 -14 -11 -11 -11 -13 -11 -14 -13 -13 -12 -8 -9 -11 -8 -10 -10 -10 -11 -10 -11 -10
-21 -22 -23 -24 -24 -24 -25 -25 -24 -24 -24 -25 -24 -24 -24 -24 -24 -24 -24 -23 -23 -23 -20 -17 -16 -14 -11 -10 -11 -11 -11 -11 -10 -10 -8 -10 -9 -10 -10 -10 -10 -10 -11 -10 -11
-21 -22 -23 -24 -24 -24 -24 -24 -25 -25 -25 -25 -24 -24 -24 -23 -24 -24 -24 -24 -23 -23 -21 -21 -17 -16 -15 -12 -14 -11 -16 -11 -13 -14 -13 -11 -11 -11 -10 -11 -11 -10 -11 -10 -11
-21 -22 -23 -24 -24 -25 -25 -25 -25 -26 -25 -25 -25 -25 -24 -24 -24 -23 -24 -23 -23 -23 -22 -21 -19 -17 -15 -16 -13 -15 -13 -13 -13 -14 -13 -12 -11 -11 -12 -12 -11 -10 -10 -10 -11
-22 -22 -23 -23 -24 -24 -25 -25 -25 -26 -27 -26 -25 -25 -25 -24 -24 -23 -24 -24 -23 -24 -23 -22 -21 -19 -18 -17 -14 -14 -12 -14 -14 -13 -13 -12 -11 -12 -11 -11 -11 -11 -10 -11 -11
-22 -21 -23 -24 -24 -24 -25 -25 -26 -26 -26 -26 -26 -25 -25 -24 -24 -24 -23 -24 -22 -22 -22 -23 -21 -20 -19 -18 -17 -15 -12 -14 -13 -12 -12 -12 -12 -12 -11 -11 -12 -12 -11 -11 -11
-21 -22 -22 -23 -24 -24 -25 -25 -25 -26 -25 -26 -26 -25 -25 -25 -24 -23 -24 -24 -23 -23 -23 -22 -21 -20 -20 -19 -18 -17 -15 -14 -15 -14 -13 -13 -12 -13 -11 -12 -11 -12 -11 -11 -12
-21 -22 -23 -24 -24 -24 -24 -25 -25 -26 -25 -25 -26 -25 -25 -25 -25 -24 -24 -23 -23 -23 -22 -22 -21 -20 -19 -19 -18 -18 -17 -15 -15 -14 -14 -12 -13 -11 -12 -11 -11 -12 -11 -11 -12
-21 -22 -22 -23 -23 -24 -24 -24 -25 -25 -25 -25 -25 -25 -24 -24 -24 -25 -24 -23 -23 -22 -22 -21 -20 -20 -19 -18 -18 -17 -17 -16 -15 -14 -13 -13 -13 -12 -13 -12 -11 -10 -11 -12 -12
-21 -22 -22 -22 -23 -23 -24 -24 -24 -25 -25 -25 -25 -24 -25 -24 -24 -24 -23 -23 -22 -22 -21 -21 -20 -20 -18 -17 -16 -16 -16 -16 -15 -14 -13 -13 -13 -13 -12 -12 -10 -11 -12 -12 -13
-21 -21 -21 -22 -23 -23 -24 -24 -24 -24 -25 -25 -25 -24 -24 -24 -24 -23 -22 -22 -22 -22 -20 -20 -20 -20 -18 -17 -17 -16 -16 -15 -15 -14 -13 -13 -13 -14 -13 -12 -11 -12 -13 -13 -12
Height
5791 5790 5790 5790 5791 5792 5792 5794 5796 5798 5800 5801 5802 5805 5809 5811 5814 5815 5819 5825 5824 5826 5827 5830 5833 5836 5836 5840 5845 5846 5843 5843 5851 5856 5860 5863 5862 5864 5862 5861 5861 5864 5858 5859 5857
5785 5785 5784 5783 5783 5782 5783 5784 5785 5787 5789 5791 5794 5796 5797 5800 5802 5805 5811 5813 5814 5817 5818 5821 5824 5827 5828 5831 5834 5834 5835 5840 5847 5850 5852 5855 5856 5858 5857 5854 5853 5854 5854 5855 5851
5780 5779 5778 5777 5776 5775 5774 5773 5773 5774 5776 5777 5781 5784 5786 5789 5791 5793 5797 5799 5803 5807 5808 5809 5812 5816 5819 5823 5826 5827 5826 5837 5839 5841 5845 5846 5847 5848 5849 5849 5851 5846 5845 5849 5844
5775 5773 5771 5769 5768 5766 5765 5765 5765 5764 5765 5766 5768 5769 5772 5775 5778 5781 5785 5787 5792 5797 5799 5802 5803 5805 5808 5812 5817 5816 5821 5826 5830 5832 5834 5837 5839 5838 5838 5840 5842 5842 5839 5840 5837
5768 5765 5763 5761 5759 5757 5756 5755 5755 5755 5755 5755 5756 5757 5759 5762 5768 5767 5770 5774 5781 5783 5788 5792 5793 5797 5796 5804 5808 5807 5814 5815 5820 5822 5825 5828 5826 5829 5829 5834 5832 5834 5833 5831 5829
5760 5757 5755 5753 5750 5748 5746 5744 5743 5742 5742 5743 5744 5745 5747 5751 5755 5756 5755 5762 5769 5772 5774 5777 5784 5786 5789 5791 5794 5803 5802 5804 5808 5811 5814 5815 5815 5819 5822 5824 5826 5824 5820 5821 5819
5751 5748 5745 5742 5739 5736 5734 5732 5731 5730 5729 5729 5729 5730 5735 5742 5742 5744 5746 5750 5754 5759 5763 5767 5769 5768 5782 5778 5787 5789 5789 5793 5796 5803 5802 5810 5803 5806 5814 5816 5812 5811 5809 5809 5809
5743 5739 5735 5731 5727 5724 5720 5717 5716 5715 5715 5715 5715 5717 5722 5723 5725 5728 5733 5737 5741 5745 5751 5755 5756 5759 5763 5771 5771 5775 5778 5777 5789 5796 5802 5804 5788 5800 5806 5804 5799 5800 5799 5798 5801
5732 5728 5723 5718 5714 5710 5706 5702 5699 5698 5697 5698 5700 5702 5705 5710 5711 5713 5716 5721 5726 5732 5738 5743 5744 5750 5753 5756 5760 5763 5763 5773 5787 5793 5789 5790 5786 5795 5796 5793 5791 5791 5789 5790 5794
5722 5716 5709 5704 5698 5693 5688 5684 5679 5680 5680 5680 5680 5686 5686 5691 5692 5697 5701 5707 5711 5716 5722 5726 5729 5733 5740 5747 5746 5758 5765 5771 5769 5782 5783 5780 5780 5782 5787 5785 5784 5785 5783 5784 5784
5710 5703 5695 5687 5679 5671 5666 5661 5657 5658 5658 5661 5661 5666 5666 5670 5673 5679 5685 5689 5693 5699 5703 5708 5708 5724 5739 5744 5750 5753 5757 5756 5762 5772 5775 5771 5772 5775 5779 5777 5777 5777 5777 5776 5774
5696 5686 5675 5664 5656 5646 5639 5634 5629 5628 5634 5637 5639 5642 5647 5647 5654 5662 5666 5672 5676 5682 5683 5686 5698 5727 5728 5734 5738 5743 5743 5746 5756 5763 5768 5764 5762 5766 5770 5770 5769 5770 5765 5765 5765
5682 5671 5658 5643 5631 5620 5613 5608 5604 5601 5606 5615 5612 5618 5626 5627 5636 5641 5644 5650 5659 5663 5665 5669 5704 5707 5711 5719 5724 5731 5735 5744 5748 5755 5755 5753 5751 5757 5764 5761 5762 5757 5754 5758 5755
5671 5656 5640 5624 5615 5607 5598 5594 5591 5589 5590 5592 5588 5596 5604 5607 5616 5620 5624 5631 5639 5645 5647 5661 5686 5685 5694 5705 5714 5719 5732 5737 5740 5742 5741 5749 5741 5751 5752 5752 5749 5750 5747 5748 5746
5656 5641 5629 5619 5609 5600 5591 5585 5582 5581 5589 5589 5584 5584 5586 5597 5599 5602 5608 5613 5621 5625 5630 5666 5664 5671 5680 5696 5698 5716 5723 5725 5730 5731 5735 5738 5739 5745 5746 5744 5745 5743 5742 5738 5737
5648 5636 5625 5616 5607 5593 5581 5576 5574 5576 5579 5581 5581 5581 5583 5584 5588 5595 5597 5599 5605 5608 5618 5647 5645 5657 5669 5682 5684 5702 5707 5715 5721 5725 5721 5735 5734 5736 5743 5738 5739 5738 5736 5734 5732
5644 5633 5623 5612 5602 5589 5581 5577 5576 5577 5579 5578 5577 5577 5577 5584 5586 5590 5593 5596 5596 5600 5608 5627 5623 5644 5652 5662 5672 5686 5695 5704 5710 5712 5719 5732 5725 5730 5735 5734 5733 5733 5731 5730 5727
5642 5631 5620 5612 5603 5592 5585 5582 5579 5578 5574 5575 5575 5577 5578 5580 5581 5582 5584 5588 5591 5594 5596 5602 5610 5631 5646 5652 5662 5672 5684 5692 5700 5709 5717 5723 5720 5728 5727 5728 5729 5728 5728 5727 5728
5639 5630 5620 5611 5602 5595 5589 5584 5581 5578 5575 5576 5575 5573 5570 5573 5573 5573 5576 5581 5584 5580 5585 5586 5593 5612 5625 5640 5646 5662 5668 5692 5698 5707 5712 5720 5722 5722 5724 5725 5725 5725 5726 5725 5726
5638 5627 5618 5608 5600 5594 5588 5584 5581 5577 5572 5572 5572 5569 5568 5566 5567 5567 5570 5571 5576 5577 5576 5581 5585 5597 5608 5622 5636 5646 5670 5677 5685 5696 5706 5714 5721 5720 5721 5722 5722 5724 5723 5723 5723
5634 5626 5617 5608 5598 5591 5586 5582 5575 5572 5569 5567 5568 5565 5565 5564 5565 5564 5565 5568 5568 5568 5569 5573 5574 5589 5597 5601 5624 5637 5648 5665 5684 5691 5701 5711 5719 5717 5717 5717 5721 5719 5719 5722 5722
5632 5622 5613 5603 5598 5591 5585 5578 5573 5568 5567 5564 5564 5562 5561 5561 5561 5561 5560 5559 5557 5558 5564 5562 5568 5577 5584 5601 5618 5632 5646 5657 5667 5680 5692 5704 5713 5708 5713 5715 5717 5716 5717 5720 5720
5631 5621 5614 5607 5598 5591 5584 5577 5571 5568 5565 5562 5560 5560 5560 5560 5558 5558 5557 5551 5552 5553 5555 5558 5565 5571 5581 5590 5602 5617 5633 5648 5664 5682 5687 5699 5707 5704 5707 5710 5713 5712 5716 5718 5719
5629 5620 5611 5602 5596 5589 5583 5577 5572 5567 5563 5560 5558 5559 5559 5557 5556 5550 5552 5552 5552 5552 5551 5555 5561 5568 5578 5593 5603 5613 5626 5643 5658 5670 5683 5695 5701 5702 5701 5704 5711 5707 5714 5716 5716
5631 5621 5612 5604 5597 5590 5583 5577 5572 5566 5562 5559 5557 5556 5554 5553 5552 5549 5549 5549 5549 5549 5550 5554 5559 5561 5561 5578 5593 5602 5624 5638 5652 5668 5676 5690 5697 5699 5697 5698 5706 5708 5712 5713 5715
5632 5623 5613 5605 5598 5590 5584 5578 5573 5567 5562 5558 5556 5554 5551 5548 5547 5544 5545 5546 5545 5548 5549 5550 5553 5553 5556 5570 5582 5591 5608 5635 5653 5666 5677 5686 5695 5700 5689 5691 5701 5706 5708 5711 5712
5632 5624 5614 5605 5597 5590 5584 5579 5573 5568 5563 5557 5554 5551 5547 5544 5540 5538 5541 5542 5546 5546 5546 5545 5547 5550 5556 5569 5582 5591 5605 5624 5647 5661 5674 5680 5692 5678 5681 5689 5697 5702 5705 5708 5710
Wind_Speed
26 29 31 32 34 36 39 40 41 42 43 44 48 59 71 68 63 60 59 54 55 55 55 53 53 50 55 44 46 43 47 47 38 38 36 30 35 32 23 21 28 33 39 39 45
30 31 33 34 35 37 38 40 43 46 47 46 46 48 51 58 63 68 67 67 63 60 56 54 54 49 50 50 48 48 49 45 43 41 40 41 31 25 26 26 26 29 29 23 35
32 33 35 36 37 39 40 41 40 41 46 48 50 51 51 51 52 54 58 60 70 68 61 58 60 54 55 53 52 52 52 44 45 51 46 41 34 35 33 30 32 34 39 37 51
33 34 36 37 38 40 41 42 43 44 44 44 46 47 48 50 55 53 53 56 58 67 66 60 59 57 58 56 54 59 56 56 51 49 45 48 47 51 48 45 42 41 43 44 51
37 39 40 41 43 44 45 46 46 46 47 47 47 47 48 48 46 51 53 55 55 59 66 70 66 65 67 60 58 62 56 57 52 50 51 51 52 52 54 48 47 51 51 57 57
37 38 39 41 43 44 45 47 49 50 51 51 51 51 51 49 50 53 54 52 52 55 57 61 67 69 70 67 65 60 59 58 60 60 59 57 60 56 51 54 55 59 63 54 52
39 41 43 45 46 47 48 49 49 50 51 53 55 56 54 50 53 54 56 55 56 54 56 58 61 68 62 71 68 73 75 70 65 57 57 47 55 55 50 49 50 49 54 52 49
40 43 45 47 49 52 54 55 56 56 55 54 55 55 54 59 59 58 57 56 57 58 56 58 58 62 66 66 66 68 69 68 54 51 41 47 58 46 40 41 47 44 41 45 43
44 46 48 50 51 53 55 57 60 61 62 62 62 60 59 57 58 62 62 60 61 59 57 57 61 61 62 64 67 66 67 61 39 43 48 48 52 38 36 39 42 35 37 40 41
47 50 54 57 59 61 61 62 64 63 64 64 65 64 63 62 63 62 63 63 64 64 63 62 63 65 63 61 60 56 54 41 49 45 45 44 42 42 42 42 38 36 46 35 40
51 53 56 58 61 64 66 69 70 70 68 67 68 67 66 67 67 65 64 64 65 65 67 68 70 61 48 54 51 53 50 51 49 44 42 47 41 39 36 42 40 43 43 43 43
54 58 61 66 69 73 75 74 72 73 71 70 67 66 67 66 70 69 68 67 66 66 67 72 68 47 58 55 56 56 59 57 49 50 45 40 39 40 39 40 44 44 48 46 41
59 64 70 71 69 64 60 59 55 55 71 67 61 67 58 63 64 65 67 69 68 67 66 68 55 59 60 58 57 55 56 50 49 48 47 36 44 44 36 40 42 46 46 34 36
62 64 64 55 49 41 38 36 34 34 45 39 44 44 50 53 60 59 62 63 66 66 64 66 57 62 60 57 57 59 52 50 50 50 53 37 49 36 36 37 39 36 34 28 30
61 60 48 44 40 40 39 36 34 31 24 12 12 19 28 31 38 39 51 56 60 61 60 59 63 61 61 57 59 50 47 46 45 45 46 48 46 28 33 36 34 26 26 30 30
57 51 44 45 40 40 31 21 14 5 2 14 19 13 2 5 12 18 27 36 45 53 60 61 61 60 62 58 61 53 50 47 45 44 46 38 40 35 26 28 19 21 28 30 27
49 43 41 42 41 37 23 12 6 10 6 10 10 16 11 13 13 16 21 20 28 27 50 59 63 64 63 63 60 59 50 47 46 49 41 27 38 32 25 18 15 24 27 23 23
43 40 40 41 41 36 18 9 8 13 7 8 21 23 19 21 18 23 22 24 24 24 30 45 54 59 64 64 61 62 61 59 56 47 42 36 37 27 17 13 18 19 17 18 12
40 38 39 38 36 30 22 17 19 20 16 12 13 3 5 4 10 15 20 23 24 34 39 34 51 55 61 64 60 57 58 52 47 32 35 21 22 28 12 12 17 17 16 15 10
40 37 37 37 34 30 25 20 19 21 23 13 13 15 9 11 13 10 16 22 27 31 24 40 39 54 59 56 65 53 53 51 51 40 27 21 14 15 10 17 18 18 17 11 11
42 39 36 34 35 32 30 24 21 18 15 17 19 15 8 13 12 20 16 20 16 29 40 38 38 39 54 58 63 63 58 59 43 46 31 20 16 21 21 24 15 24 24 10 8
42 42 36 37 32 30 30 26 16 16 13 10 14 10 13 10 10 11 14 19 18 22 29 39 38 36 48 44 45 58 59 58 56 50 45 26 22 22 26 15 13 21 24 11 11
44 43 39 33 30 30 27 24 21 11 13 11 13 12 12 10 8 15 19 27 17 14 27 37 36 32 44 51 51 58 60 60 51 39 42 28 12 24 23 16 18 25 21 15 15
47 45 39 36 34 30 27 25 23 16 15 11 11 6 9 12 16 16 14 10 18 16 19 27 38 31 28 43 43 45 50 57 45 46 33 31 22 18 21 22 16 28 20 17 13
47 46 42 37 34 26 25 25 21 20 16 11 8 7 13 18 13 18 16 5 5 6 11 21 34 38 45 48 46 44 43 51 44 44 40 33 25 11 17 23 20 25 19 14 11
43 47 44 37 31 26 22 22 21 19 19 14 11 10 11 10 10 12 17 11 12 11 11 14 27 49 51 53 51 54 51 45 38 42 33 24 28 24 30 28 22 22 17 15 15
38 43 44 40 31 30 25 20 22 20 19 16 13 19 13 16 16 13 16 15 14 14 15 17 33 45 47 26 52 55 61 51 45 35 34 22 30 32 34 30 19 25 22 20 18
Wind_Direction
272 271 271 269 267 266 263 261 258 251 247 246 243 244 241 241 244 244 245 247 248 250 252 252 256 257 265 261 257 258 260 267 259 247 248 237 226 231 277 252 252 260 269 280 279
268 267 267 267 269 269 268 265 261 258 256 253 249 246 243 242 244 246 246 246 248 249 249 249 252 253 255 254 253 256 260 268 264 258 254 250 253 267 264 268 276 272 281 288 283
268 267 265 264 262 262 262 264 263 260 258 257 254 251 248 247 247 244 245 246 243 244 245 249 254 247 252 253 251 253 266 266 259 258 254 249 247 249 247 261 268 268 271 276 278
270 269 269 268 266 266 264 261 259 258 257 254 255 252 248 246 245 246 245 245 243 242 243 245 251 253 252 250 251 251 262 261 257 254 255 255 259 251 248 253 259 265 275 276 282
276 274 272 270 269 267 265 264 262 260 258 256 254 251 249 247 245 248 244 244 242 243 243 243 245 252 255 254 251 257 265 254 260 254 257 259 258 259 260 262 265 262 270 277 282
279 277 275 275 273 270 268 267 265 262 260 259 256 254 250 248 245 242 248 245 242 242 242 242 243 249 250 251 253 259 256 251 264 259 263 266 265 269 264 269 274 275 275 275 277
288 286 284 282 280 277 274 271 267 264 262 261 258 257 256 254 250 246 246 247 244 241 242 244 243 243 246 247 253 255 259 256 257 258 262 265 271 269 275 281 277 275 272 273 274
294 291 288 286 283 281 278 274 271 268 264 261 259 257 255 253 253 252 248 246 245 243 240 241 243 246 246 246 247 250 252 254 254 265 274 268 274 277 283 281 283 289 283 275 267
295 292 288 285 282 278 276 274 272 269 267 264 261 258 255 252 251 250 251 249 246 245 243 239 239 242 244 245 248 250 252 256 267 266 268 261 266 282 283 284 289 293 291 281 274
295 293 291 289 285 282 278 274 271 268 265 264 262 259 256 254 251 249 249 248 248 247 244 242 238 237 240 244 250 254 258 262 260 264 269 270 269 281 283 283 281 281 279 289 285
303 300 295 291 288 284 280 277 274 268 264 260 258 257 258 254 252 251 249 249 248 247 245 242 240 241 251 248 253 254 256 257 259 267 268 272 272 279 272 269 273 267 282 281 275
311 308 305 300 295 290 284 280 278 273 267 263 259 257 253 252 252 250 249 248 247 246 245 241 244 248 242 243 243 246 249 253 259 261 261 258 257 262 275 281 282 286 276 282 282
316 313 309 305 300 294 289 286 281 275 268 264 264 261 256 254 250 249 248 245 244 244 243 243 244 240 238 239 239 242 245 250 254 256 255 255 263 268 277 277 281 276 282 286 282
322 326 323 320 315 310 303 297 289 289 282 286 283 266 260 259 255 251 249 247 242 241 241 241 239 237 235 235 237 238 243 247 251 254 257 258 267 273 278 283 282 288 297 302 290
346 345 338 345 334 327 310 302 298 295 298 304 297 278 281 258 250 252 249 247 246 244 239 239 237 236 235 234 231 234 235 240 246 253 257 255 264 277 273 277 289 296 295 284 277
359 354 343 348 349 338 334 329 330 324 216 238 264 277 0 223 219 246 260 252 246 245 242 232 233 230 233 232 227 226 228 231 238 245 250 251 258 266 281 287 292 292 282 284 276
359 352 346 350 355 350 356 18 48 50 281 249 252 237 220 232 226 229 232 262 269 255 239 233 230 226 224 225 225 226 221 225 230 234 249 253 257 274 277 275 287 280 287 280 273
359 351 347 345 357 6 352 6 19 329 2 308 295 295 266 249 254 252 244 239 243 253 221 230 228 223 225 225 225 223 224 226 230 237 248 252 262 292 273 269 288 279 273 272 289
358 353 350 348 357 7 11 322 349 328 330 326 307 253 195 275 279 236 233 235 239 229 225 225 222 215 217 222 214 217 206 222 226 239 243 243 292 299 276 278 270 245 262 269 252
357 355 350 354 354 1 3 356 326 302 292 302 280 275 238 244 281 295 229 234 237 239 237 229 228 214 206 217 218 200 211 207 216 214 226 244 235 240 251 277 277 233 263 270 250
353 354 355 357 357 356 357 346 334 330 330 293 265 279 290 268 245 238 246 243 258 253 234 229 227 207 207 203 210 206 203 208 211 218 206 198 229 238 238 247 271 247 263 230 237
355 355 357 355 357 356 354 351 355 352 317 313 310 281 278 266 263 259 244 243 238 236 245 231 219 200 206 196 206 203 206 201 205 212 208 197 227 259 253 248 252 228 243 226 243
358 354 359 354 353 357 356 357 5 347 331 335 279 277 260 280 244 293 274 278 279 264 247 227 204 210 202 191 189 200 202 199 197 203 211 190 221 243 247 237 231 228 226 244 237
1 1 356 354 347 357 3 3 359 350 342 341 333 275 264 284 265 290 266 269 262 267 244 227 210 206 196 196 187 198 195 190 191 195 187 182 215 228 245 239 214 230 233 234 223
360 1 358 355 349 358 1 2 1 355 350 347 339 259 282 292 270 266 250 231 234 259 201 224 216 209 205 180 186 192 182 178 188 199 185 185 201 193 246 258 216 232 220 220 238
354 359 360 356 358 354 4 5 359 357 2 348 340 339 318 293 278 262 229 229 200 215 226 231 205 204 196 173 180 178 175 188 189 199 172 186 207 212 223 239 214 205 207 215 234
347 353 358 359 356 357 357 1 359 359 352 354 347 324 329 300 279 231 204 199 153 216 227 225 206 208 196 154 179 176 171 176 184 191 169 178 184 209 210 226 225 202 206 220 234